User: anonymous   Login
Location: Stanford
(52.2833°N, 2.4333°W)
Time: 05:11:07
(UTC+00:00)
Language:

ISS - Orbit

View from above orbital plane
View from above orbital plane
View from above satellite
View from above satellite

Ground track
Ground track

The orbit data is extracted from the following two-line orbital elements,

1 25544U 98067A   21108.94822546  .00001395  00000-0  33570-4 0  9992
2 25544  51.6450 275.7299 0002501 245.1777 252.2026 15.48899528279416
Epoch (UTC): 18 April 2021 22:45:26
Eccentricity: 0.0002501
inclination: 51.6450°
perigee height: 418 km
apogee height: 421 km
right ascension of ascending node: 275.7299°
argument of perigee: 245.1777°
revolutions per day: 15.48899528
mean anomaly at epoch: 252.2026°
orbit number at epoch: 27941

The dashed part of the orbit path shows where the satellite is in the earth's shadow,  

DLR